Location: Hillern
(53.0557°N, 9.8577°E)
Time: 17:39:21
(UTC+00:00)

Cosmos 1975 - Pass Details

Date: 19 May 2025
Orbit: 487 x 506 km, 82.5° (Epoch: 17 June)

Event Time Altitude Azimuth Distance (km) Brightness Sun altitude
Rises 22:44:22 0° 342° (NNW) 2,577 7.9 -16.6°
Reaches altitude 10° 22:46:35 10° 334° (NNW) 1,689 6.4 -16.7°
Maximum altitude 22:49:59 36° 267° (W) 796 3.6 -16.7°
Enters shadow 22:51:20 26° 224° (SW) 991 3.8 -16.7°
